User: anonymous   Login
Location: Beekmeers
(50.8953°N, 3.6968°E)
Time: 23:00:01
(UTC+00:00)
Language:

CZ-2C R/B - Orbit

View from above orbital plane
View from above orbital plane
View from above satellite
View from above satellite

Ground track
Ground track

The orbit data is extracted from the following two-line orbital elements,

1 31114U 07010B   24204.35128052  .00000439  00000-0  22275-3 0  9993
2 31114  98.3371 338.3727 0058565 225.2624 134.3779 14.19818198895228
Epoch (UTC): 22 July 2024 08:25:50
Eccentricity: 0.0058565
inclination: 98.3371°
perigee height: 784 km
apogee height: 868 km
right ascension of ascending node: 338.3727°
argument of perigee: 225.2624°
revolutions per day: 14.19818198
mean anomaly at epoch: 134.3779°
orbit number at epoch: 89522

The dashed part of the orbit path shows where the satellite is in the earth's shadow,  

DLR